Hydesville Past Weather

Last 30 Days

High: 50ºf @9:51 AM    Low: 48ºf @4:51 AM     Approx. Precipitation / Rain Total: in.
Time (PDT)Temp. (ºf)Humidity (%)Dew Point (ºf)Barometer (inHG)Wind Speed (mph)Wind DirectionWind Gust (mph)1hr. Precip / Rain Total (in.)Snow Depth
9:51 AM508044.08-0.87nnw4.34--
8:51 AM498444.38-0.87e3.48--
7:51 AM488543.71-0.87e3.48--
6:51 AM488744.32---2.61--
5:51 AM488744.32---3.48--
4:51 AM488644.01---3.48--
3:51 AM498645---2.61--
2:51 AM498645---4.34--
1:51 AM498745.3-0.87ene4.34--
12:51 AM498945.9---4.34--
High: 79ºf @3:51 PM    Low: 44ºf @6:51 AM     Approx. Precipitation / Rain Total: in.
Time (PDT)Temp. (ºf)Humidity (%)Dew Point (ºf)Barometer (inHG)Wind Speed (mph)Wind DirectionWind Gust (mph)1hr. Precip / Rain Total (in.)Snow Depth
11:51 PM498745.3---2.61--
10:51 PM518346.02-0.87ese3.48--
9:51 PM537344.58-0.87se6.95--
8:51 PM565540.06-1.74nne5.21--
7:51 PM604639.16-0.87e6.95--
6:51 PM653939.43-1.74se6.08--
5:51 PM712937.13-0.87e6.95--
4:51 PM752334.68-0.87nne6.95--
3:51 PM792034.49-1.74ne8.69--
2:51 PM771525.81-3.48ne7.82--
1:51 PM772032.84-1.74ese6.08--
12:51 PM732231.9-2.61e6.08--
11:51 AM694043.66-2.61nne5.21--
10:51 AM664946.28-1.74sse4.34--
9:51 AM596346.42-2.61sse5.21--
8:51 AM557246.14-0.87sw3.48--
7:51 AM508244.72---3.48--
6:51 AM449442.39-0.87sw2.61--
5:51 AM468742.35---3.48--
4:51 AM478643.03-1.74n3.48--
3:51 AM488142.45---3.48--
2:51 AM497742.11---2.61--
1:51 AM516941.19---3.48--
12:51 AM537043.48-1.74nnw5.21--
High: 82ºf @2:51 PM    Low: 46ºf @6:51 AM     Approx. Precipitation / Rain Total: in.
Time (PDT)Temp. (ºf)Humidity (%)Dew Point (ºf)Barometer (inHG)Wind Speed (mph)Wind DirectionWind Gust (mph)1hr. Precip / Rain Total (in.)Snow Depth
11:51 PM556643.85-2.61nne3.48--
10:51 PM576143.68-2.61n5.21--
9:51 PM585742.85-1.74nne4.34--
8:51 PM633937.65-1.74n3.48--
7:51 PM663436.82-0.87nne5.21--
6:51 PM712937.13-1.74ne6.08--
5:51 PM742838.81-0.87e6.08--
4:51 PM772740.44-0.87se6.08--
3:51 PM812440.78-1.74ene6.95--
2:51 PM822340.52-1.74ene9.56--
1:51 PM793044.9-1.74nne6.95--
12:51 PM753545.47-1.74ese5.21--
11:51 AM714950.86-1.74ene5.21--
10:51 AM675952.19-1.74s5.21--
9:51 AM607250.94-2.61s5.21--
8:51 AM558149.28-2.61s3.48--
7:51 AM528948.86-0.87sse2.61--
6:51 AM469845.47------
5:51 AM479746.19---0.87--
4:51 AM489546.64---1.74--
3:51 AM509047.18---1.74--
2:51 AM508846.59---1.74--
1:51 AM528447.32---3.48--
12:51 AM548047.97-1.74nne3.48--
High: 79ºf @3:51 PM    Low: 41ºf @6:51 AM     Approx. Precipitation / Rain Total: in.
Time (PDT)Temp. (ºf)Humidity (%)Dew Point (ºf)Barometer (inHG)Wind Speed (mph)Wind DirectionWind Gust (mph)1hr. Precip / Rain Total (in.)Snow Depth
11:51 PM567648.54-1.74nne3.48--
10:51 PM576846.54-1.74nne3.48--
9:51 PM606447.78-1.74nne4.34--
8:51 PM635847.99-1.74nne4.34--
7:51 PM665247.86---3.48--
6:51 PM704748.83-0.87ene5.21--
5:51 PM734550.39---3.48--
4:51 PM754552.2-0.87s4.34--
3:51 PM794052.59-0.87sse5.21--
2:51 PM784051.7-1.74nne6.95--
1:51 PM763747.83-1.74ene6.08--
12:51 PM734550.39-0.87e6.08--
11:51 AM695351.15-0.87ese5.21--
10:51 AM616749.96-0.87se5.21--
9:51 AM557848.27-0.87s3.48--
8:51 AM479746.19---2.61--
7:51 AM449943.74---1.74--
6:51 AM419940.74---1.74--
5:51 AM429941.74---0.87--
4:51 AM439842.47---0.87--
3:51 AM449743.2------
2:51 AM459643.93---1.74--
1:51 AM469444.37-0.87n3.48--
12:51 AM479144.51-1.74nne3.48--
High: 71ºf @3:51 PM    Low: 42ºf @12:51 AM     Approx. Precipitation / Rain Total: in.
Time (PDT)Temp. (ºf)Humidity (%)Dew Point (ºf)Barometer (inHG)Wind Speed (mph)Wind DirectionWind Gust (mph)1hr. Precip / Rain Total (in.)Snow Depth
11:51 PM488343.09---2.61--
9:51 PM507341.69-1.74ne3.48--
8:51 PM536340.75-1.74ne6.95--
7:51 PM575741.92-2.61e8.69--
6:51 PM615243.25-0.87ne6.95--
5:51 PM654643.71-1.74ne6.95--
4:51 PM694244.94-1.74ne5.21--
3:51 PM714045.45-0.87ene6.08--
2:51 PM704145.21-1.74nne6.95--
1:51 PM684646.44-0.87nnw6.08--
12:51 PM635245.09-1.74n6.08--
11:51 AM606146.51-1.74se6.08--
10:51 AM547144.81-1.74ese6.95--
9:51 AM517844.38-2.61sse4.34--
8:51 AM449342.11-0.87ne3.48--
7:51 AM439641.94---3.48--
6:51 AM439842.47---2.61--
5:51 AM439742.21---1.74--
4:51 AM439742.21---0.87--
3:51 AM439842.47---1.74--
2:51 AM439742.21-0.87ene2.61--
1:51 AM429841.48-0.87nne2.61--
12:51 AM429841.48-0.87nne2.61--
High: 68ºf @2:51 PM    Low: 43ºf @11:51 PM     Approx. Precipitation / Rain Total: in.
Time (PDT)Temp. (ºf)Humidity (%)Dew Point (ºf)Barometer (inHG)Wind Speed (mph)Wind DirectionWind Gust (mph)1hr. Precip / Rain Total (in.)Snow Depth
11:51 PM439541.67-0.87ne2.61--
10:51 PM459142.53---4.34--
9:51 PM478643.03-0.87e6.08--
8:51 PM497842.44-1.74ene5.21--
7:51 PM537043.48-0.87ese7.82--
6:51 PM576244.11-0.87ese7.82--
5:51 PM605845.18-0.87nne6.08--
4:51 PM635446.09-1.74ese7.82--
3:51 PM674947.2-1.74nnw8.69--
2:51 PM684847.57-1.74nne8.69--
1:51 PM675047.74-2.61ene6.08--
12:51 PM625646.12-2.61se6.08--
11:51 AM586245.05-1.74n5.21--
10:51 AM566845.59-1.74nne6.95--
9:51 AM537244.22-1.74ene6.08--
8:51 AM468942.94-0.87ene3.48--
7:51 AM459042.25-0.87wnw2.61--
6:51 AM459242.82-0.87se3.48--
5:51 AM459242.82---2.61--
4:51 AM459242.82---1.74--
3:51 AM469243.81---2.61--
2:51 AM469043.23---2.61--
1:51 AM469043.23---2.61--
12:51 AM468942.94-0.87e3.48--
High: 65ºf @3:51 PM    Low: 44ºf @6:51 AM     Approx. Precipitation / Rain Total: in.
Time (PDT)Temp. (ºf)Humidity (%)Dew Point (ºf)Barometer (inHG)Wind Speed (mph)Wind DirectionWind Gust (mph)1hr. Precip / Rain Total (in.)Snow Depth
11:51 PM478843.63-0.87ene4.34--
10:51 PM488543.71-0.87ene4.34--
9:51 PM498344.06-0.87e5.21--
8:51 PM508144.4-1.74se7.82--
7:51 PM517944.72-1.74ese9.56--
6:51 PM547445.9-2.61ne9.56--
5:51 PM576746.15-2.61e8.69--
4:51 PM626148.39-1.74ne7.82--
3:51 PM655849.86-1.74e7.82--
2:51 PM636249.77-2.61ene6.95--
1:51 PM596547.25-1.74ese6.08--
12:51 PM586445.89-2.61e6.08--
11:51 AM556844.63-2.61ne6.08--
10:51 AM527745.02-0.87ene4.34--
9:51 AM488844.62-1.74ese4.34--
8:51 AM479044.22-0.87e2.61--
7:51 AM459543.65-1.74nnw3.48--
6:51 AM449743.2---2.61--
5:51 AM449843.47-0.87n3.48--
4:51 AM449642.93---2.61--
3:51 AM459142.53---2.61--
2:51 AM458941.96---2.61--
1:51 AM459343.1-0.87e3.48--
12:51 AM459142.53---3.48--
High: 51ºf @5:51 PM    Low: 44ºf @7:51 AM     Approx. Precipitation / Rain Total: in.
Time (PDT)Temp. (ºf)Humidity (%)Dew Point (ºf)Barometer (inHG)Wind Speed (mph)Wind DirectionWind Gust (mph)1hr. Precip / Rain Total (in.)Snow Depth
11:51 PM468942.94-0.87ene3.48--
10:51 PM469043.23---4.34--
9:51 PM468942.94---3.48--
8:51 PM479144.51-0.87ese4.34--
7:51 PM489245.79---4.34--
6:51 PM509047.18-0.87ese6.08--
5:51 PM518446.34-0.87sse3.48--
4:51 PM508746.28-0.87nne3.48--
3:51 PM498945.9-0.87nne3.48--
2:51 PM498845.6---2.61--
1:51 PM499046.2---5.21--
12:51 PM489145.5---4.34--
11:51 AM479244.8---5.21--
10:51 AM469143.52-1.74e5.21--
9:51 AM459844.47---2.61--
8:51 AM449943.74---2.61--
7:51 AM4410044---2.61--
6:51 AM4510045---1.74--
5:51 AM4510045---1.74--
4:51 AM4510045------
3:51 AM459944.74---1.74--
2:51 AM459944.74---2.61--
1:51 AM459944.74-0.87n3.48--
12:51 AM469945.73-0.87n4.34--
High: 55ºf @3:51 PM    Low: 43ºf @9:51 AM     Approx. Precipitation / Rain Total: in.
Time (PDT)Temp. (ºf)Humidity (%)Dew Point (ºf)Barometer (inHG)Wind Speed (mph)Wind DirectionWind Gust (mph)1hr. Precip / Rain Total (in.)Snow Depth
11:51 PM469945.73-0.87nne3.48--
10:51 PM469845.47---1.74--
9:51 PM489646.91-0.87nw3.48--
8:51 PM499046.2-1.74nnw4.34--
7:51 PM507943.75---2.61--
6:51 PM527845.36---2.61--
5:51 PM547847.3---3.48--
4:51 PM547546.26---2.61--
3:51 PM557547.22---4.34--
2:51 PM547646.61-0.87s4.34--
1:51 PM509147.48---4.34--
12:51 PM479645.92-1.74ssw5.21--
11:51 AM459643.93---6.08--
10:51 AM459643.93---4.34--
9:51 AM439541.67-0.87nne4.34--
8:51 AM439742.21---3.48--
7:51 AM439742.21-0.87n5.21--
6:51 AM4410044-1.74s5.21--
5:51 AM4510045-0.87nw2.61--
4:51 AM4510045-1.74nw5.21--
3:51 AM4710047---3.48--
2:51 AM4710047-0.87ne2.61--
1:51 AM4710047---1.74--
12:51 AM4710047-0.87nnw4.34--
High: 61ºf @1:51 PM    Low: 44ºf @12:51 AM     Approx. Precipitation / Rain Total: in.
Time (PDT)Temp. (ºf)Humidity (%)Dew Point (ºf)Barometer (inHG)Wind Speed (mph)Wind DirectionWind Gust (mph)1hr. Precip / Rain Total (in.)Snow Depth
11:51 PM4810048-0.87ssw2.61--
10:51 PM489947.73---3.48--
9:51 PM489947.73-1.74n4.34--
8:51 PM489847.46---3.48--
7:51 PM499246.78-0.87ne2.61--
6:51 PM537043.48---3.48--
5:51 PM556643.85---5.21--
4:51 PM585742.85-1.74s6.95--
3:51 PM595743.79-3.48s11.3--
2:51 PM576244.11-1.74s6.08--
1:51 PM616047.01-0.87nnw7.82--
12:51 PM586546.3-1.74n6.08--
11:51 AM566845.59-0.87e6.08--
10:51 AM527945.69-1.74sse4.34--
9:51 AM479044.22---3.48--
8:51 AM479144.51---2.61--
7:51 AM459643.93---3.48--
6:51 AM459643.93---2.61--
5:51 AM459744.2---1.74--
4:51 AM459643.93---2.61--
3:51 AM459643.93---2.61--
2:51 AM459643.93---2.61--
1:51 AM459543.65-0.87nnw3.48--
12:51 AM449642.93---1.74--
High: 73ºf @2:51 PM    Low: 45ºf @11:51 PM     Approx. Precipitation / Rain Total: in.
Time (PDT)Temp. (ºf)Humidity (%)Dew Point (ºf)Barometer (inHG)Wind Speed (mph)Wind DirectionWind Gust (mph)1hr. Precip / Rain Total (in.)Snow Depth
11:51 PM459543.65-0.87n2.61--
10:51 PM469344.09---3.48--
9:51 PM488744.32-2.61ne6.95--
8:51 PM518145.38-1.74e7.82--
7:51 PM557045.4-1.74ene13.03--
3:51 PM733140.57-1.74n6.95--
2:51 PM733745.17-0.87ne11.3--
1:51 PM694647.35-1.74ene6.95--
12:51 PM655849.86-2.61nne6.08--
10:51 AM519048.17-0.87ene3.48--
8:51 AM479946.73---3.48--
7:51 AM469945.73-0.87nnw3.48--
6:51 AM469945.73---1.74--
5:51 AM479846.46------
4:51 AM479846.46-0.87n2.61--
3:51 AM479746.19---2.61--
2:51 AM489747.19-0.87n2.61--
1:51 AM489847.46---0.87--
12:51 AM479846.46---2.61--
High: 75ºf @3:51 PM    Low: 46ºf @7:51 AM     Approx. Precipitation / Rain Total: in.
Time (PDT)Temp. (ºf)Humidity (%)Dew Point (ºf)Barometer (inHG)Wind Speed (mph)Wind DirectionWind Gust (mph)1hr. Precip / Rain Total (in.)Snow Depth
11:51 PM479645.92-0.87nne5.21--
10:51 PM489346.07-0.87ene6.08--
9:51 PM528647.94-0.87ne4.34--
8:51 PM557948.61-1.74ene5.21--
7:51 PM587349.39-1.74e8.69--
6:51 PM636551.04-2.61e6.08--
5:51 PM675952.19-1.74ene6.08--
4:51 PM715252.48-2.61ne7.82--
3:51 PM754552.2-2.61n6.95--
2:51 PM744350.07-2.61ene6.08--
1:51 PM724549.48-0.87ese6.95--
12:51 PM694848.48-0.87nne5.21--
11:51 AM636149.33-1.74ne6.08--
10:51 AM587048.27-2.61sse6.08--
9:51 AM528246.68-0.87ssw3.48--
8:51 AM489045.21-0.87n3.48--
7:51 AM469243.81-0.87nne3.48--
6:51 AM479345.08-0.87nne3.48--
5:51 AM479244.8-0.87nne3.48--
4:51 AM489245.79---2.61--
3:51 AM499347.06---2.61--
2:51 AM499246.78---2.61--
1:51 AM509147.48-0.87ene3.48--
12:51 AM508946.89---1.74--
High: 67ºf @3:51 PM    Low: 45ºf @12:51 AM     Approx. Precipitation / Rain Total: in.
Time (PDT)Temp. (ºf)Humidity (%)Dew Point (ºf)Barometer (inHG)Wind Speed (mph)Wind DirectionWind Gust (mph)1hr. Precip / Rain Total (in.)Snow Depth
11:51 PM508946.89---2.61--
10:51 PM519048.17---3.48--
9:51 PM509147.48---3.48--
8:51 PM508946.89-0.87e6.08--
7:51 PM528347-1.74e7.82--
6:51 PM567447.83-1.74e6.95--
5:51 PM606648.61-1.74e6.95--
4:51 PM646150.28-2.61nne6.95--
3:51 PM675550.29-1.74nne8.69--
2:51 PM675650.78-1.74ne6.95--
1:51 PM655749.39-2.61ne6.95--
12:51 PM616147.45-1.74nnw6.95--
11:51 AM586747.1-1.74s5.21--
10:51 AM557045.4-2.61se6.08--
9:51 AM488343.09-1.74ene5.21--
8:51 AM478643.03---2.61--
7:51 AM468842.65---2.61--
6:51 AM468842.65-0.87ene2.61--
5:51 AM468942.94---3.48--
4:51 AM469043.23---2.61--
3:51 AM468842.65---2.61--
2:51 AM468842.65---2.61--
1:51 AM468742.35---3.48--
12:51 AM458941.96-0.87nnw4.34--
High: 66ºf @3:51 PM    Low: 43ºf @4:51 AM     Approx. Precipitation / Rain Total: in.
Time (PDT)Temp. (ºf)Humidity (%)Dew Point (ºf)Barometer (inHG)Wind Speed (mph)Wind DirectionWind Gust (mph)1hr. Precip / Rain Total (in.)Snow Depth
11:51 PM459042.25-1.74n4.34--
10:51 PM468842.65-1.74n5.21--
9:51 PM478442.42---4.34--
8:51 PM497541.43-0.87se3.48--
7:51 PM526741.39-1.74ene6.95--
6:51 PM556242.22-1.74nne11.3--
5:51 PM585340.96-1.74ene6.08--
4:51 PM625143.66-1.74ne9.56--
3:51 PM664845.74-1.74n6.95--
2:51 PM654945.37-1.74e7.82--
1:51 PM625244.17-2.61nne7.82--
12:51 PM605543.78-1.74ne6.08--
11:51 AM556242.22-2.61ne5.21--
10:51 AM536139.91-2.61se6.08--
9:51 AM496738.53-1.74nne6.08--
8:51 AM457838.56-0.87nne4.34--
7:51 AM438237.89---4.34--
6:51 AM438338.2-0.87e3.48--
5:51 AM438438.5---2.61--
4:51 AM438639.1---1.74--
3:51 AM438639.1---1.74--
2:51 AM448740.38---2.61--
1:51 AM448640.09---1.74--
12:51 AM448640.09---1.74--
High: 60ºf @2:51 PM    Low: 42ºf @6:51 AM     Approx. Precipitation / Rain Total: in.
Time (PDT)Temp. (ºf)Humidity (%)Dew Point (ºf)Barometer (inHG)Wind Speed (mph)Wind DirectionWind Gust (mph)1hr. Precip / Rain Total (in.)Snow Depth
11:51 PM448439.48---2.61--
10:51 PM458039.21---2.61--
9:51 PM457838.56-0.87sse6.08--
8:51 PM467438.18---5.21--
7:51 PM487038.69-1.74se9.56--
6:51 PM516539.65-1.74se6.95--
5:51 PM546040.43-1.74nne7.82--
4:51 PM575641.46-1.74nnw7.82--
3:51 PM595241.4-2.61ne6.08--
2:51 PM605342.82-0.87ene6.95--
1:51 PM585340.96-1.74ne9.56--
12:51 PM565740.98-2.61e8.69--
11:51 AM546140.86-1.74nnw7.82--
10:51 AM516740.43-1.74nne6.95--
9:51 AM507140.97-1.74wnw6.08--
8:51 AM458440.46-0.87e4.34--
7:51 AM439942.74---1.74--
6:51 AM429841.48---1.74--
5:51 AM439742.21---1.74--
4:51 AM439842.47---2.61--
3:51 AM439541.67---2.61--
2:51 AM448940.97---1.74--
1:51 AM448840.68-0.87nne1.74--
12:51 AM448840.68---2.61--
High: 60ºf @3:51 PM    Low: 32ºf @5:51 AM     Approx. Precipitation / Rain Total: in.
Time (PDT)Temp. (ºf)Humidity (%)Dew Point (ºf)Barometer (inHG)Wind Speed (mph)Wind DirectionWind Gust (mph)1hr. Precip / Rain Total (in.)Snow Depth
11:51 PM468240.82-0.87n3.48--
10:51 PM468140.5---2.61--
9:51 PM467839.53-0.87nnw4.34--
8:51 PM487741.14---3.48--
7:51 PM497039.65---2.61--
6:51 PM516138.03-0.87ne5.21--
5:51 PM545437.73-1.74n6.95--
4:51 PM565238.62-0.87wsw6.95--
3:51 PM604035.61-1.74s6.08--
2:51 PM583731.88-2.61ssw8.69--
1:51 PM574234.14-1.74se5.21--
12:51 PM554433.49-2.61sse8.69--
11:51 AM525234.93-2.61s6.95--
10:51 AM486536.8-1.74se4.34--
9:51 AM428939-0.87wsw4.34--
8:51 AM349933.75-0.87se4.34--
7:51 AM349933.75---2.61--
6:51 AM329931.75---2.61--
5:51 AM329831.5-0.87nne2.61--
4:51 AM339932.75-0.87n2.61--
3:51 AM339531.73---4.34--
2:51 AM349733.24-2.61nnw4.34--
1:51 AM359333.18-1.74nnw5.21--
12:51 AM369133.63-1.74-5.21--
High: 55ºf @1:51 PM    Low: 34ºf @6:51 AM     Approx. Precipitation / Rain Total: in.
Time (PDT)Temp. (ºf)Humidity (%)Dew Point (ºf)Barometer (inHG)Wind Speed (mph)Wind DirectionWind Gust (mph)1hr. Precip / Rain Total (in.)Snow Depth
11:51 PM379034.34-0.87n5.21--
10:51 PM388834.77-2.61nnw6.95--
9:51 PM408335.26-1.74nne4.34--
8:51 PM417734.35---3.48--
7:51 PM446934.49---6.08--
6:51 PM466434.51-0.87sse7.82--
5:51 PM496035.73-1.74nne8.69--
4:51 PM487440.11-1.74ne7.82--
3:51 PM438538.8-2.61ne6.08--
2:51 PM418235.93-1.74ene10.43--
1:51 PM554031.13-2.61nne7.82--
12:51 PM554534.05-2.61nne10.43--
11:51 AM524732.4-1.74se13.03--
10:51 AM495232.15-1.74n5.21--
9:51 AM466735.67-0.87n4.34--
8:51 AM408937.02-0.87ne5.21--
7:51 AM369634.97-1.74n5.21--
6:51 AM349833.5-1.74nne6.08--
5:51 AM369634.97-1.74nne5.21--
4:51 AM369634.97-1.74nne5.21--
3:51 AM389636.96-1.74nne4.34--
2:51 AM389235.89---1.74--
1:51 AM399637.96---2.61--
12:51 AM409438.41---2.61--
High: 48ºf @4:51 PM    Low: 38ºf @3:51 AM     Approx. Precipitation / Rain Total: in.
Time (PDT)Temp. (ºf)Humidity (%)Dew Point (ºf)Barometer (inHG)Wind Speed (mph)Wind DirectionWind Gust (mph)1hr. Precip / Rain Total (in.)Snow Depth
11:51 PM418938.01---5.21--
10:51 PM419539.68-0.87nw3.48--
9:51 PM409638.95---4.34--
8:51 PM409638.95---4.34--
7:51 PM409739.22-1.74n6.08--
6:51 PM429340.12---7.82--
5:51 PM467538.53-0.87ese6.95--
4:51 PM487139.05-0.87nw6.95--
3:51 PM477740.17-0.87e4.34--
2:51 PM486737.57---4.34--
1:51 PM487038.69-0.87s4.34--
12:51 PM456734.71-0.87e5.21--
11:51 AM447536.59-2.61sse4.34--
10:51 AM418837.72---2.61--
9:51 AM408736.45---4.34--
8:51 AM409237.87---2.61--
7:51 AM389336.16-1.74nne3.48--
6:51 AM389235.89-1.74n4.34--
5:51 AM389436.43-0.87sw3.48--
4:51 AM389536.7---2.61--
3:51 AM389336.16-0.87wnw3.48--
2:51 AM399537.69---2.61--
1:51 AM409338.14---3.48--
12:51 AM409237.87---2.61--
High: 52ºf @10:51 AM    Low: 41ºf @11:51 PM     Approx. Precipitation / Rain Total: in.
Time (PDT)Temp. (ºf)Humidity (%)Dew Point (ºf)Barometer (inHG)Wind Speed (mph)Wind DirectionWind Gust (mph)1hr. Precip / Rain Total (in.)Snow Depth
11:51 PM419038.3-0.87nnw2.61--
10:51 PM418737.43-0.87nne3.48--
9:51 PM428437.52---3.48--
8:51 PM428738.42---5.21--
7:51 PM448339.17-0.87se6.08--
6:51 PM468040.18-0.87ese7.82--
5:51 PM507442.04-0.87ene6.08--
4:51 PM488744.32-0.87n6.08--
3:51 PM498544.69-0.87nne6.08--
2:51 PM488443.4-1.74ne6.95--
1:51 PM508244.72-1.74ne6.08--
12:51 PM518045.05-1.74ene5.21--
11:51 AM527745.02---3.48--
10:51 AM527644.67-0.87ene4.34--
9:51 AM508044.08-1.74nne5.21--
8:51 AM488644.01---2.61--
7:51 AM489045.21---3.48--
6:51 AM489245.79-0.87e3.48--
5:51 AM489346.07---3.48--
4:51 AM499547.63---2.61--
3:51 AM499347.06-0.87ene2.61--
2:51 AM509247.77---2.61--
1:51 AM509247.77---4.34--
12:51 AM509448.34---4.34--
High: 82ºf @3:51 PM    Low: 46ºf @6:51 AM     Approx. Precipitation / Rain Total: in.
Time (PDT)Temp. (ºf)Humidity (%)Dew Point (ºf)Barometer (inHG)Wind Speed (mph)Wind DirectionWind Gust (mph)1hr. Precip / Rain Total (in.)Snow Depth
11:51 PM499547.63-2.61ese4.34--
10:51 PM518947.87-0.87ene8.69--
9:51 PM547947.63-2.61ene6.08--
8:51 PM586847.5-2.61ne7.82--
7:51 PM635747.52-1.74ne5.21--
6:51 PM675349.3---6.08--
5:51 PM733845.88---5.21--
4:51 PM773547.23-1.74ssw6.95--
3:51 PM823148.35-1.74s6.08--
2:51 PM813550.74-1.74ese6.08--
1:51 PM783951.01-1.74n6.08--
12:51 PM754451.59-0.87ssw6.08--
11:51 AM685551.22-2.61se5.21--
10:51 AM646351.15-0.87wsw4.34--
9:51 AM577950.55-1.74sse4.34--
8:51 AM519248.76---2.61--
7:51 AM499848.46---2.61--
6:51 AM4610046---2.61--
5:51 AM479946.73---1.74--
4:51 AM479946.73---1.74--
3:51 AM489747.19---0.87--
2:51 AM499447.35---0.87--
1:51 AM509247.77---1.74--
12:51 AM528848.56---2.61--
High: 75ºf @3:51 PM    Low: 42ºf @5:51 AM     Approx. Precipitation / Rain Total: in.
Time (PDT)Temp. (ºf)Humidity (%)Dew Point (ºf)Barometer (inHG)Wind Speed (mph)Wind DirectionWind Gust (mph)1hr. Precip / Rain Total (in.)Snow Depth
11:51 PM538548.61-0.87n4.34--
10:51 PM548248.63-1.74nne4.34--
9:51 PM577549.15-1.74nne4.34--
8:51 PM597149.61-1.74ene5.21--
7:51 PM625947.5-2.61ene5.21--
6:51 PM665348.37-1.74ne4.34--
5:51 PM714246.74-0.87ne5.21--
4:51 PM733745.17-1.74nne7.82--
3:51 PM753243.12-2.61ne6.95--
2:51 PM733543.72-1.74ne8.69--
1:51 PM713340.44-2.61ne6.95--
12:51 PM674142.52-2.61ne5.21--
11:51 AM615142.74-0.87nne5.21--
10:51 AM556844.63-2.61sse6.08--
9:51 AM507843.41-1.74sse5.21--
8:51 AM449241.83-0.87n2.61--
7:51 AM429440.4---3.48--
6:51 AM429340.12-1.74ne5.21--
5:51 AM429440.4-2.61nne4.34--
4:51 AM439240.84-0.87nne4.34--
3:51 AM449442.39-0.87n3.48--
2:51 AM449442.39---2.61--
1:51 AM459443.38-0.87nne2.61--
12:51 AM479144.51---3.48--
High: 62ºf @2:51 PM    Low: 44ºf @1:51 AM     Approx. Precipitation / Rain Total: in.
Time (PDT)Temp. (ºf)Humidity (%)Dew Point (ºf)Barometer (inHG)Wind Speed (mph)Wind DirectionWind Gust (mph)1hr. Precip / Rain Total (in.)Snow Depth
11:51 PM488944.91---1.74--
10:51 PM488944.91---1.74--
9:51 PM479144.51---3.48--
8:51 PM488543.71-0.87e4.34--
7:51 PM507843.41-0.87ese5.21--
6:51 PM536943.1-1.74nne9.56--
5:51 PM556443.05-1.74sse8.69--
4:51 PM576043.25-1.74ene7.82--
3:51 PM605644.26-2.61nne8.69--
2:51 PM625445.16-0.87nne9.56--
1:51 PM576143.68-2.61ne9.56--
12:51 PM537344.58-1.74ene5.21--
11:51 AM517844.38-0.87e3.48--
10:51 AM508244.72-0.87e5.21--
9:51 AM488744.32---1.74--
7:51 AM468642.05---4.34--
6:51 AM458941.96-0.87n3.48--
5:51 AM449442.39---4.34--
4:51 AM458841.66-1.74n5.21--
3:51 AM448740.38-2.61nw5.21--
2:51 AM448840.68-2.61nnw5.21--
1:51 AM448840.68-2.61n5.21--
12:51 AM448940.97-2.61nnw6.95--
High: 64ºf @2:51 PM    Low: 35ºf @7:51 AM     Approx. Precipitation / Rain Total: in.
Time (PDT)Temp. (ºf)Humidity (%)Dew Point (ºf)Barometer (inHG)Wind Speed (mph)Wind DirectionWind Gust (mph)1hr. Precip / Rain Total (in.)Snow Depth
11:51 PM458641.07-2.61nw6.08--
10:51 PM468140.5-2.61n7.82--
9:51 PM487540.46-2.61n5.21--
8:51 PM507241.33-2.61nnw6.08--
7:51 PM546341.69-1.74nnw5.21--
6:51 PM574938.03-0.87n8.69--
5:51 PM575340.04-1.74ene10.43--
4:51 PM585240.47-0.87ene9.56--
3:51 PM594537.69-3.48e11.3--
2:51 PM644139.82-1.74ne6.95--
1:51 PM643938.54-0.87wnw6.08--
12:51 PM595643.32-3.48sse6.95--
11:51 AM556744.25-0.87ssw6.95--
10:51 AM458941.96-0.87ssw3.48--
9:51 AM409739.22-0.87ssw6.08--
8:51 AM389937.74-0.87ssw3.48--
7:51 AM359934.75-0.87wsw4.34--
6:51 AM369935.75-1.74n2.61--
5:51 AM379635.97---3.48--
4:51 AM379836.49-2.61n4.34--
3:51 AM389636.96-1.74n4.34--
2:51 AM409538.69-0.87nne4.34--
1:51 AM409338.14-0.87n5.21--
12:51 AM428437.52-2.61nnw6.95--
High: 54ºf @5:51 PM    Low: 40ºf @3:51 AM     Approx. Precipitation / Rain Total: in.
Time (PDT)Temp. (ºf)Humidity (%)Dew Point (ºf)Barometer (inHG)Wind Speed (mph)Wind DirectionWind Gust (mph)1hr. Precip / Rain Total (in.)Snow Depth
11:51 PM447335.91-3.48nnw6.95--
10:51 PM495332.62-4.34e12.17--
9:51 PM495633.99-1.74ssw11.3--
8:51 PM514932.52-3.48ese9.56--
7:51 PM515033.02-2.61e15.64--
6:51 PM534733.32-2.61ese12.17--
5:51 PM544734.23-3.48e18.25--
4:51 PM535537.27-1.74ssw12.17--
3:51 PM516439.26-1.74sse16.51--
2:51 PM525435.88-3.48ese14.77--
1:51 PM524832.92-7.82se19.99--
12:51 PM525435.88-2.61sse13.9--
11:51 AM526440.2-0.87wsw4.34--
10:51 AM478041.16-0.87sw7.82--
9:51 AM448840.68-1.74ssw6.08--
8:51 AM439541.67-0.87sw6.08--
7:51 AM4110041-0.87wsw3.48--
6:51 AM4010040-0.87sw3.48--
5:51 AM4010040---3.48--
4:51 AM4010040-0.87sw5.21--
3:51 AM4010040---2.61--
2:51 AM4110041---2.61--
1:51 AM4010040-0.87n3.48--
12:51 AM4110041-0.87sse2.61--
High: 50ºf @3:51 PM    Low: 41ºf @7:51 AM     Approx. Precipitation / Rain Total: in.
Time (PDT)Temp. (ºf)Humidity (%)Dew Point (ºf)Barometer (inHG)Wind Speed (mph)Wind DirectionWind Gust (mph)1hr. Precip / Rain Total (in.)Snow Depth
11:51 PM4210042---2.61--
10:51 PM429941.74---0.87--
9:51 PM439742.21---4.34--
8:51 PM449642.93-0.87n2.61--
7:51 PM459443.38---6.95--
6:51 PM479044.22-0.87wnw6.08--
5:51 PM488744.32-0.87nne5.21--
4:51 PM488142.45-1.74ssw9.56--
3:51 PM507542.39-0.87ese6.08--
2:51 PM489045.21-1.74s5.21--
1:51 PM498043.1-0.87ssw9.56--
12:51 PM458641.07---7.82--
11:51 AM478542.73-2.61ssw9.56--
10:51 AM478643.03-1.74sse4.34--
9:51 AM459443.38---4.34--
8:51 AM449041.26---6.95--
7:51 AM419940.74-0.87nnw3.48--
6:51 AM419940.74-2.61n6.08--
5:51 AM429941.74-0.87n3.48--
4:51 AM419740.21---5.21--
3:51 AM429841.48-1.74nne6.08--
2:51 AM439441.39-2.61ene6.95--
1:51 AM439842.47-1.74ene6.08--
12:51 AM449342.11-0.87nw5.21--
High: 50ºf @6:51 PM    Low: 45ºf @11:51 PM     Approx. Precipitation / Rain Total: in.
Time (PDT)Temp. (ºf)Humidity (%)Dew Point (ºf)Barometer (inHG)Wind Speed (mph)Wind DirectionWind Gust (mph)1hr. Precip / Rain Total (in.)Snow Depth
11:51 PM459543.65-1.74ne7.82--
10:51 PM459744.2-1.74nnw3.48--
9:51 PM459643.93-1.74n4.34--
8:51 PM469845.47---2.61--
7:51 PM479746.19-0.87sw2.61--
6:51 PM509448.34---1.74--
Past Weather Disclaimer Note regarding "Approx. Precipitation / Rain Total"

Currently

Fair 46°F
30.27in
Barometer
93%
Humidity
North 3.5mph
Wind
Fair

Past Weather Nearby

More Local Information

Bookmark and Share